This is the latest recevied weather packets stored in our database for station/object WC4PEM-15. If no packets are shown the sender has not sent any weather packets the latest 1 day(s).
| Time | Temp. | Humidity | Pressure | Rain* | Wind** | Luminosity | Snow |
|---|---|---|---|---|---|---|---|
| 1777969290 | 17.78° C | 91% | 1013.9 hPa | 0 mm | 1.79 m/s, 74° | - | - |
| 1777969202 | 17.22° C | 91% | 1014.1 hPa | 0 mm | 1.79 m/s, 81° | - | - |
| 1777968902 | 17.78° C | 91% | 1013.9 hPa | 0 mm | 1.79 m/s, 74° | - | - |
| 1777968708 | 17.78° C | 91% | 1014.2 hPa | 0 mm | 1.79 m/s, 71° | - | - |
| 1777968602 | 17.78° C | 91% | 1014.2 hPa | 0 mm | 1.79 m/s, 71° | - | - |
| 1777968441 | 17.78° C | 90% | 1014.1 hPa | 0 mm | 1.79 m/s, 77° | - | - |
| 1777968302 | 17.78° C | 90% | 1014.1 hPa | 0 mm | 1.79 m/s, 77° | - | - |
| 1777968007 | 17.78° C | 90% | 1014.1 hPa | 0 mm | 2.24 m/s, 77° | - | - |
| 1777968002 | 17.78° C | 90% | 1014.2 hPa | 0 mm | 1.79 m/s, 74° | - | - |
| 1777967702 | 17.78° C | 90% | 1014.1 hPa | 0 mm | 2.24 m/s, 77° | - | - |
| 1777967535 | 17.78° C | 90% | 1014.3 hPa | 0 mm | 3.13 m/s, 83° | - | - |
| 1777967407 | 17.78° C | 90% | 1014 hPa | 0 mm | 3.13 m/s, 85° | - | - |
| 1777967402 | 17.78° C | 90% | 1014.3 hPa | 0 mm | 3.13 m/s, 83° | - | - |
| 1777967103 | 17.78° C | 90% | 1014 hPa | 0 mm | 3.13 m/s, 85° | - | - |
| 1777966803 | 17.78° C | 90% | 1014.2 hPa | 0 mm | 3.13 m/s, 83° | - | - |
| 1777966698 | 17.78° C | 89% | 1014.2 hPa | 0 mm | 2.68 m/s, 87° | - | - |
| 1777966503 | 17.78° C | 89% | 1014.2 hPa | 0 mm | 2.68 m/s, 87° | - | - |
| 1777966203 | 17.78° C | 89% | 1014.4 hPa | 0 mm | 2.68 m/s, 84° | - | - |
| 1777966114 | 17.78° C | 89% | 1014.4 hPa | 0 mm | 2.68 m/s, 64° | - | - |
| 1777965903 | 17.78° C | 89% | 1014.4 hPa | 0 mm | 2.68 m/s, 64° | - | - |
| 1777965603 | 17.78° C | 89% | 1014.3 hPa | 0 mm | 3.13 m/s, 87° | - | - |
| 1777965485 | 18.33° C | 89% | 1014.1 hPa | 0 mm | 3.13 m/s, 77° | - | - |
| 1777965303 | 18.33° C | 89% | 1014.1 hPa | 0 mm | 3.13 m/s, 77° | - | - |
| 1777965003 | 18.33° C | 89% | 1014.3 hPa | 0 mm | 3.13 m/s, 86° | - | - |
| 1777964886 | 18.33° C | 89% | 1014.3 hPa | 0 mm | 3.13 m/s, 84° | - | - |
* Rain latest hour (hover to see other rain measurements)
** Current wind speed in m/s (hover to see current wind gust speed)